Terug naar catalogus

ATLAS 5 CENTAUR R/B

ActiefMEO
NORAD 49819·ROCKET BODY·🇺🇸 United States

Gelanceerd Dec 7, 2021 vanaf Cape Canaveral Space Force Station

Loading…

Volgende Passages (komende 24 uur)

TLE

VersSource: Space-Track

Epoch: Sep 14, 2026, 09:29 UTC

1 49819U 21118C   26257.39540736 -.00000179  00000-0  00000-0 0  9991
2 49819   4.7543  77.4113 0284179 208.5690 150.1557  0.94820331 16539

Volg ATLAS 5 CENTAUR R/B in realtime met AllMySat

Download on the App Store